Regional Weather Roundup
Issued by NWS Midland/Odessa, TX

Skip options and go directly to product.
Home | Oldest Version | Previous Version | Current Version | All | Text Only | Save Text | Print | Product List | Glossary On

Skip product version selection by date and time.   
851
ASUS44 KMAF 260810
RWRMAF
MIDLAND AREA WEATHER ROUNDUP
NATIONAL WEATHER SERVICE MIDLAND TX
300 AM CDT SUN OCT 26 2014

...IN SOUTHWEST TEXAS AND SOUTHEAST NEW MEXICO...

CITY           SKY/WX    TMP DP  RH WIND       PRES   REMARKS
ALPINE         CLEAR     61  49  65 SW6       30.22F
ANDREWS        FAIR      64  55  70 S13       30.07F
ARTESIA        NOT AVBL
BIG SPRING     CLEAR     64  54  70 SE8       30.08F
CARLSBAD       CLEAR     55  47  74 CALM      30.05F
DRYDEN           N/A     64  57  78 N8        30.05F
FORT STOCKTON  CLEAR     63  54  72 S12       30.07F
GUAD PASS      CLEAR     62  38  40 W15       30.20F
HOBBS          CLEAR     57  54  88 S8        30.10F
MARFA          CLEAR     48  45  87 N8        30.22S
MIDLAND AIRPK  CLEAR     68  55  64 S12       30.07F
MIDLAND INTL   CLEAR     66  55  67 S10       30.06F
ODESSA         CLEAR     66  54  65 S9        30.07F
PECOS          CLEAR     56  51  84 CALM      30.04F
PRESIDIO       FAIR      68  51  54 N13G18    30.08S
SEMINOLE       CLEAR     59  54  82 SW6       30.09S
SNYDER         CLEAR     60  53  76 S6        30.06F
WINK           CLEAR     64  54  69 SE9       30.04F
$$
...OTHER STATIONS IN TEXAS...

CITY           SKY/WX    TMP DP  RH WIND       PRES   REMARKS
ABILENE        CLEAR     67  51  56 S8        30.04F
AMARILLO       CLEAR     62  49  62 SW14      30.01F
AUSTIN         CLEAR     58  57  97 CALM      30.07S
BROWNSVILLE    CLEAR     66  65  96 S3        30.06F
CORPUS CHRISTI CLEAR     63  61  93 CALM      30.06F
DALLAS FTW     CLEAR     71  60  68 S12       30.01F
DEL RIO        CLEAR     66  58  75 E6        30.04F
EL PASO        CLEAR     65  45  48 CALM      30.10F
HOUSTON INT    CLEAR     58  58 100 CALM      30.06F
LUBBOCK        CLEAR     65  50  58 SW14      30.05F
SAN ANGELO     CLEAR     65  52  62 SW7       30.06F
SAN ANTONIO    CLEAR     69  62  78 CALM      30.08F
WACO           CLEAR     66  60  81 S8        30.04F
WICHITA FALLS  NOT AVBL
$$
...OTHER LOCATIONS IN NEW MEXICO...

CITY           SKY/WX    TMP DP  RH WIND       PRES   REMARKS
ALAMAGORDO     NOT AVBL
ALBUQUERQUE    PTCLDY    57  38  48 SE8       30.18F
CANNON AFB     CLEAR     57  47  68 NW6       30.08F
CLOVIS         CLEAR     54  43  66 W7        30.10F
HOLLOMAN AFB   PTCLDY    57  44  62 CALM      30.10F
ROSWELL        CLEAR     57  46  66 W8        30.06F
RUIDOSO        CLEAR     55  36  47 W6        30.28S
SANTA FE       CLEAR     56  30  37 NW3       30.20F
TRUTH OR CONSE CLEAR     63  41  44 W13       30.15F
TUCUMCARI      CLEAR     61  45  55 SW8       30.02F
$$

USA.gov is the U.S. government's official web portal to all federal, state and local government web resources and services.